[[{"header":{"parameterUnit":"m.s-1","parameterCategory":1,"la1":30.2991,"la2":30.254,"lo1":-89.0895,"lo2":-89.0444,"dy":0.0017,"dx":0.0017,"nx":28,"ny":28,"refTime":"2025-07-12T09:00:00:Z","depth":0,"parameterNumber":2,"parameterNumberName":"U-component_of_WINDS"},"data":[0,0,0,0,0,0,0,0,0,0,0,0,0,0,0,0,0,0,0,0,0,0,0,0,0,0,0,0,0,0,0,0,0,0,0,0,0,0,0,0,0,0,0,0,0,0,0,0,0,0,0,0,0,0,0,0,0,0,1.8146,1.8145,0,1.8112,1.8112,1.8111,1.803,1.8029,1.8027,1.8025,1.7991,1.7992,1.7993,0,0,0,0,0,0,0,0,0,0,0,0,0,1.8137,1.8138,1.8146,1.8145,1.8145,1.8112,1.8112,1.8111,1.8031,1.8028,1.8026,1.8024,1.7991,1.7992,1.7993,0,0,0,0,0,0,0,0,0,0,0,0,0,1.8126,1.8138,1.8146,1.8101,1.8096,1.8112,1.8112,1.8111,1.8031,1.8028,1.8026,1.8023,1.7991,1.7992,1.7993,1.805,0,0,1.7996,1.7996,0,0,0,0,0,0,0,0,1.8127,1.8127,1.8108,1.8104,1.8099,1.8073,1.8096,1.8091,1.8032,1.8056,1.8025,1.8022,1.802,1.8019,1.8018,1.8049,1.8047,1.7996,1.7997,1.7997,1.7997,0,0,0,0,0,0,0,1.8128,1.8128,1.8132,1.8107,1.8102,1.8081,1.8077,1.8095,1.8053,1.8053,1.8047,1.8045,1.8018,1.8017,1.8017,1.8047,1.7996,1.7997,1.7997,1.7998,1.8118,1.8121,0,0,0,0,0,0,1.8135,1.8129,1.8133,1.8131,1.8107,1.8084,1.8079,1.8084,1.8052,1.8045,1.8047,1.8041,1.8017,1.8016,1.8015,1.8077,1.7997,1.7998,1.7999,1.8116,1.8119,1.8122,0,0,0,0,0,0,1.8136,1.8137,1.8135,1.8128,1.8127,1.8086,1.8093,1.8084,1.8084,1.8047,1.8039,1.8054,1.8015,1.8014,1.8041,1.8075,1.7998,1.7999,1.8113,1.8117,1.812,1.8204,0,0,0,0,0,0,1.8136,1.8137,1.8159,1.813,1.8127,1.8162,1.8095,1.8086,1.8086,1.8078,1.8052,1.8046,1.8013,1.804,1.8042,1.8075,1.8,1.8109,1.8114,1.8119,1.8198,1.821,1.822,0,0,0,0,0,1.8136,1.8185,1.8161,1.8162,1.8154,1.8164,1.8163,1.8124,1.8089,1.811,1.8086,1.8047,1.8072,1.8044,1.8045,1.8079,1.8107,1.8113,1.8119,1.8192,1.8207,1.822,0,0,0,0,0,0,1.822,1.818,1.8153,1.8194,1.8183,1.815,1.8176,1.8141,1.814,1.8133,1.8084,1.8079,1.8112,1.8099,1.8068,1.8131,1.8083,1.8089,1.8138,1.8152,1.8163,1.8164,1.8001,0,0,0,0,0,1.8243,1.8255,1.822,1.8259,1.8255,1.8217,1.822,1.819,1.8177,1.8172,1.815,1.8138,1.8143,1.8147,1.815,1.8196,1.8187,1.822,1.8231,1.8241,1.8246,1.8266,1.8278,1.8141,1.8141,1.8141,0,0,1.8292,1.8271,1.8282,1.8276,1.8264,1.8275,1.8213,1.823,1.8237,1.8175,1.8197,1.8182,1.8165,1.8201,1.8216,1.8191,1.8282,1.8248,1.8256,1.8256,1.8273,1.8286,1.8297,1.8145,1.8144,1.8143,0,0,1.8385,1.8372,1.8402,1.8391,1.8373,1.8347,1.8354,1.8326,1.8312,1.8335,1.8287,1.8296,1.8306,1.8295,1.8291,1.8379,1.8341,1.8381,1.8439,1.8459,1.847,1.8479,1.8507,1.8518,1.8387,1.8387,1.8387,0,1.8447,1.8463,1.8422,1.844,1.8437,1.838,1.8409,1.84,1.8385,1.8384,1.8356,1.8365,1.8351,1.8381,1.8402,1.8403,1.8407,1.8383,1.8472,1.8481,1.8489,1.8515,1.8526,1.8392,1.8392,1.8391,1.8391,0,1.8539,1.8551,1.8577,1.8562,1.8562,1.8586,1.8547,1.8553,1.8523,1.85,1.8522,1.8502,1.8498,1.8504,1.8477,1.853,1.8515,1.8481,1.8431,1.8507,1.853,1.854,1.8399,1.8397,1.8396,1.8395,0,0,1.8683,1.8643,1.8653,1.8644,1.862,1.8628,1.8648,1.8644,1.8648,1.864,1.8653,1.8663,1.863,1.8625,1.8596,1.8614,1.8679,1.8576,1.8575,1.8593,1.8734,1.8757,1.877,1.8655,1.8657,1.8659,1.8734,0,1.8768,1.8799,1.8762,1.8801,1.881,1.8755,1.8773,1.8759,1.8738,1.8741,1.8718,1.8723,1.8682,1.8678,1.8693,1.8668,1.8706,1.8663,1.8666,1.8666,1.8668,1.8782,1.8808,1.8879,1.8743,1.8745,1.8746,0,1.8871,1.8865,1.8905,1.8875,1.8877,1.8893,1.8884,1.889,1.8873,1.8855,1.885,1.8814,1.883,1.8784,1.8804,1.8775,1.8774,1.8762,1.8764,1.876,1.8709,1.8778,1.8902,1.8911,1.876,1.8759,1.8758,0,1.8967,1.897,1.8993,1.8988,1.8955,1.8966,1.8953,1.8934,1.8932,1.8925,1.8923,1.8919,1.8916,1.8912,1.8875,1.8846,1.8899,1.8851,1.8883,1.8884,1.8895,1.8894,1.9016,1.89,1.89,1.89,1.89,0,1.9063,1.9089,1.9035,1.9049,1.9076,1.9032,1.9059,1.9041,1.9023,1.9032,1.8986,1.8995,1.8947,1.895,1.8922,1.8941,1.8941,1.8926,1.8918,1.8928,1.893,1.8925,1.8918,1.8903,1.8902,1.8901,1.8901,0,1.9175,1.914,1.9161,1.9128,1.912,1.9141,1.9111,1.9122,1.9098,1.9109,1.9109,1.907,1.9071,1.9035,1.903,1.901,1.9041,1.9025,1.9046,1.904,1.9074,1.907,1.9195,1.9207,1.9086,1.9088,1.9089,0,1.9237,1.9255,1.9223,1.9225,1.9213,1.9218,1.9216,1.9174,1.9173,1.9154,1.9167,1.9164,1.9159,1.9164,1.9135,1.913,1.9112,1.9156,1.9111,1.912,1.9108,1.9106,1.9106,1.9165,1.9166,1.9167,1.9168,0,1.9349,1.9331,1.933,1.9322,1.9321,1.9313,1.9302,1.9307,1.926,1.9262,1.9262,1.9259,1.9252,1.9249,1.9239,1.9224,1.9188,1.9183,1.919,1.9199,1.9209,1.9201,1.9069,1.918,1.9179,1.9178,1.9177,1.9177,1.9435,1.9447,1.9426,1.9425,1.9413,1.9403,1.9411,1.9386,1.9386,1.9377,1.9352,1.9356,1.9336,1.9318,1.9306,1.9308,1.9286,1.9297,1.9299,1.9301,1.9306,1.9212,1.9306,1.9306,1.9306,1.9305,1.9305,0,1.9542,1.9525,1.9526,1.9511,1.951,1.9477,1.9462,1.9464,1.9467,1.9452,1.9448,1.9447,1.9444,1.9414,1.9407,1.9414,1.9397,1.9413,1.9411,1.9407,1.9328,1.9321,1.9427,1.9427,1.9427,1.9427,1.9427,1.9427,1.9597,1.9615,1.9594,1.9604,1.9587,1.959,1.9584,1.9574,1.9561,1.9562,1.9559,1.954,1.9518,1.9509,1.9504,1.9495,1.9493,1.9514,1.95,1.9425,1.9413,1.9402,1.9395,1.9515,1.9515,1.9579,1.9579,1.958]},{"header":{"parameterUnit":"m.s-1","parameterCategory":1,"la1":30.2991,"la2":30.254,"lo1":-89.0895,"lo2":-89.0444,"dy":0.0017,"dx":0.0017,"nx":28,"ny":28,"refTime":"2025-07-12T09:00:00:Z","depth":0,"parameterNumber":3,"parameterNumberName":"V-component_of_WINDS"},"data":[0,0,0,0,0,0,0,0,0,0,0,0,0,0,0,0,0,0,0,0,0,0,0,0,0,0,0,0,0,0,0,0,0,0,0,0,0,0,0,0,0,0,0,0,0,0,0,0,0,0,0,0,0,0,0,0,0,0,2.6716,2.6716,0,2.6726,2.6726,2.6726,2.6642,2.6639,2.6637,2.6635,2.6645,2.6647,2.6649,0,0,0,0,0,0,0,0,0,0,0,0,0,2.6623,2.6625,2.6716,2.6716,2.6716,2.6726,2.6726,2.6726,2.6642,2.6639,2.6636,2.6634,2.6644,2.6647,2.665,0,0,0,0,0,0,0,0,0,0,0,0,0,2.6651,2.6625,2.6716,2.6675,2.6672,2.6726,2.6726,2.6726,2.6643,2.6639,2.6635,2.6632,2.6643,2.6646,2.665,2.6743,0,0,2.6661,2.6663,0,0,0,0,0,0,0,0,2.6649,2.6654,2.6681,2.6678,2.6674,2.6679,2.6696,2.6732,2.6643,2.6654,2.6635,2.663,2.6659,2.6661,2.6671,2.6744,2.6744,2.6662,2.6664,2.6665,2.6667,0,0,0,0,0,0,0,2.6648,2.6653,2.672,2.6682,2.6678,2.6656,2.6656,2.6703,2.6676,2.6653,2.6646,2.6649,2.6656,2.6667,2.667,2.6744,2.6662,2.6665,2.6667,2.6669,2.689,2.6894,0,0,0,0,0,0,2.6651,2.6652,2.6719,2.672,2.6653,2.6661,2.6661,2.6681,2.6675,2.6671,2.6652,2.6645,2.6663,2.6666,2.667,2.6776,2.6665,2.6669,2.6671,2.6887,2.6891,2.6895,0,0,0,0,0,0,2.6649,2.6658,2.6719,2.6685,2.6691,2.6666,2.6689,2.6683,2.6694,2.6675,2.6669,2.6668,2.666,2.6665,2.6725,2.6775,2.6671,2.6674,2.6882,2.6888,2.6893,2.699,0,0,0,0,0,0,2.6647,2.6658,2.6694,2.6686,2.6693,2.6775,2.6693,2.6686,2.67,2.6691,2.6688,2.6684,2.6658,2.672,2.6729,2.6778,2.6677,2.6878,2.6885,2.6892,2.6983,2.6999,2.7012,0,0,0,0,0,2.6644,2.6722,2.6696,2.6705,2.6737,2.6778,2.6781,2.6749,2.6705,2.674,2.6727,2.6685,2.6769,2.6727,2.6736,2.6788,2.6874,2.6883,2.6891,2.6976,2.6996,2.7012,0,0,0,0,0,0,2.6737,2.672,2.6691,2.6769,2.6775,2.6763,2.6807,2.6771,2.6791,2.6781,2.674,2.674,2.6806,2.6803,2.6757,2.6876,2.6814,2.6824,2.6875,2.6894,2.6908,2.6907,2.668,0,0,0,0,0,2.6766,2.6801,2.6784,2.6854,2.6858,2.6832,2.6849,2.6823,2.6828,2.683,2.6822,2.6828,2.6855,2.6875,2.6899,2.6982,2.6979,2.7022,2.7037,2.7049,2.7058,2.7099,2.7117,2.6923,2.6922,2.6922,0,0,2.6827,2.6822,2.6847,2.6872,2.6874,2.6909,2.6835,2.6877,2.6902,2.6837,2.6891,2.6886,2.689,2.6961,2.6992,2.696,2.7111,2.706,2.707,2.7072,2.7109,2.7128,2.7144,2.6928,2.6927,2.6926,0,0,2.6956,2.6957,2.7013,2.7016,2.702,2.7001,2.7015,2.7008,2.7001,2.7056,2.7006,2.7036,2.7085,2.7089,2.7098,2.7225,2.7186,2.7235,2.7312,2.7352,2.7367,2.738,2.7424,2.744,2.7244,2.7244,2.7245,0,2.7031,2.7083,2.7047,2.7091,2.7102,2.7044,2.7099,2.7104,2.7116,2.7125,2.7089,2.7147,2.7147,2.7216,2.7247,2.7257,2.7269,2.7234,2.7368,2.7381,2.7393,2.7433,2.745,2.725,2.7249,2.7249,2.7248,0,2.7174,2.7211,2.7256,2.7267,2.7284,2.7334,2.7304,2.7325,2.7297,2.7283,2.7338,2.7334,2.7355,2.737,2.7345,2.7436,2.7416,2.7375,2.7312,2.7418,2.7455,2.747,2.7258,2.7256,2.7254,2.7253,0,0,2.7363,2.7351,2.7368,2.737,2.7369,2.7396,2.7442,2.7462,2.748,2.749,2.7526,2.7568,2.7529,2.7539,2.7513,2.7549,2.7647,2.7503,2.7502,2.7528,2.7744,2.7773,2.7792,2.7621,2.7624,2.7626,2.7743,0,2.7486,2.7563,2.7531,2.7612,2.7643,2.7587,2.7627,2.763,2.7617,2.7641,2.7627,2.7656,2.7604,2.7609,2.7642,2.7628,2.7689,2.7619,2.7653,2.7655,2.7652,2.7811,2.7843,2.7953,2.7757,2.776,2.7762,0,2.764,2.7654,2.7738,2.7727,2.7739,2.7776,2.779,2.7815,2.7816,2.7804,2.7814,2.7779,2.7822,2.776,2.7818,2.7771,2.7783,2.7779,2.7782,2.7782,2.7713,2.7814,2.7987,2.8003,2.7785,2.7783,2.7781,0,2.7765,2.7806,2.7859,2.7864,2.7854,2.788,2.7878,2.7875,2.7889,2.7901,2.7909,2.7927,2.7937,2.7951,2.7922,2.788,2.7983,2.7919,2.7973,2.7974,2.7996,2.7995,2.8171,2.8008,2.8007,2.8007,2.8007,0,2.7905,2.7958,2.7915,2.7948,2.8005,2.7966,2.8023,2.8014,2.8012,2.8042,2.7995,2.8024,2.7984,2.8009,2.7987,2.8037,2.8042,2.8032,2.8025,2.8035,2.8036,2.8041,2.8032,2.8011,2.801,2.8009,2.8009,0,2.8055,2.8028,2.8083,2.8068,2.8065,2.8108,2.8095,2.8124,2.8107,2.8145,2.8152,2.8125,2.8152,2.8124,2.8149,2.8134,2.8201,2.8184,2.82,2.8194,2.8248,2.8243,2.8433,2.8455,2.8279,2.8281,2.8282,0,2.8145,2.8183,2.8172,2.8188,2.8187,2.8214,2.8226,2.819,2.8205,2.8208,2.8236,2.8259,2.8274,2.8319,2.8302,2.832,2.8302,2.8367,2.8304,2.8312,2.83,2.8297,2.83,2.838,2.8382,2.8383,2.8385,0,2.8306,2.829,2.831,2.8324,2.834,2.835,2.8357,2.8373,2.8334,2.8353,2.8379,2.8391,2.8415,2.8437,2.845,2.8447,2.8409,2.8405,2.8418,2.8427,2.8434,2.8429,2.8232,2.84,2.8399,2.8398,2.8397,2.8396,2.8427,2.8457,2.8453,2.8475,2.8476,2.8482,2.8508,2.8494,2.8514,2.853,2.8508,2.8539,2.8537,2.855,2.8551,2.8575,2.8547,2.8566,2.8571,2.8576,2.8582,2.8432,2.8577,2.8577,2.8576,2.8576,2.8576,0,2.8583,2.8577,2.8598,2.8607,2.8625,2.8587,2.8592,2.8609,2.8637,2.8638,2.8653,2.8682,2.8702,2.8687,2.8703,2.8725,2.8708,2.8731,2.8728,2.8727,2.8608,2.8594,2.8744,2.8744,2.8744,2.8744,2.8744,2.8744,2.8667,2.8715,2.8699,2.8746,2.874,2.8769,2.8774,2.878,2.878,2.8813,2.883,2.8819,2.8813,2.8828,2.8845,2.884,2.8847,2.8876,2.8864,2.8753,2.8736,2.872,2.8706,2.8878,2.8878,2.8981,2.8982,2.8983]}]]